Theta_e
301 301 301 302 302 302 303 303 303 304 304 305 306 306 307 309 313 316 325 329 334 334 342 339 341 343 349 353 352 351 357 358 355 358 360 357 359 353 352 354 352 349 348 347 350
301 301 301 302 302 302 303 303 303 303 304 305 306 307 308 309 313 320 327 326 328 333 336 346 345 342 344 348 349 352 351 352 351 352 361 359 356 355 356 355 353 349 346 348 350
301 301 301 301 301 302 302 303 304 304 304 304 306 307 308 309 320 324 332 328 329 329 332 335 340 343 339 334 346 343 345 347 347 350 354 357 356 355 356 358 352 350 348 349 349
301 301 301 301 301 301 302 303 303 304 304 304 306 308 309 314 323 331 329 331 330 328 335 342 341 339 332 328 342 341 343 345 344 354 355 356 354 357 356 355 349 346 348 349 348
301 301 301 301 301 302 302 303 303 304 305 305 307 310 309 317 318 322 324 328 328 330 341 340 340 335 327 325 330 342 344 344 344 349 350 353 355 356 356 349 346 346 349 349 347
301 301 301 301 302 302 302 303 304 305 307 306 307 310 318 311 318 321 323 327 329 331 334 335 334 330 326 326 328 337 341 344 343 350 351 353 356 355 353 348 347 349 349 347 345
301 301 301 301 302 302 302 305 307 309 309 307 308 311 320 311 318 326 328 331 328 334 333 334 332 325 325 325 325 331 343 344 345 347 351 349 355 359 352 348 348 349 349 345 343
301 301 301 301 302 302 304 308 310 310 309 309 310 318 314 311 312 314 318 318 320 322 331 331 331 325 326 324 323 328 343 347 347 346 348 345 358 356 352 349 349 348 349 346 343
301 301 301 301 302 303 308 310 312 312 311 310 312 318 312 316 317 316 316 316 320 322 328 327 325 324 323 323 322 333 344 340 349 348 347 351 353 350 350 349 348 347 347 344 345
301 301 301 302 303 303 310 311 313 314 313 316 319 316 314 316 319 317 318 317 319 320 322 323 321 322 320 321 324 333 350 350 346 346 346 344 348 345 352 350 349 347 347 345 345
301 301 301 302 303 305 311 310 303 305 308 310 317 316 316 316 317 316 316 318 319 320 320 321 321 321 323 322 324 326 345 350 347 345 342 340 344 348 344 352 352 350 349 346 344
301 300 301 302 303 308 310 305 308 308 305 307 308 310 312 313 313 315 316 316 317 317 317 318 319 321 323 324 325 331 349 349 345 342 344 346 345 343 344 350 352 352 350 346 343
301 300 300 302 305 308 310 310 310 309 305 308 309 309 309 309 311 312 313 317 317 315 315 317 318 320 321 323 326 326 343 344 345 343 344 349 345 347 345 348 350 350 350 346 344
302 301 300 301 307 306 310 310 309 309 306 309 311 311 311 309 309 312 313 315 317 317 317 316 318 320 320 322 323 323 330 340 345 341 347 345 348 351 347 351 352 350 350 348 345
302 302 300 301 305 307 310 309 309 308 305 313 312 313 310 309 311 311 313 313 315 316 316 317 319 319 321 322 322 324 325 333 342 344 341 343 345 341 351 352 352 351 350 349 347
303 302 301 303 303 304 307 308 308 307 308 313 312 313 312 310 311 313 312 312 313 313 313 314 318 320 320 321 321 323 324 324 327 330 338 339 337 337 359 354 353 351 350 350 348
303 302 302 304 305 308 309 305 305 308 310 311 310 309 310 312 311 311 311 310 309 309 309 313 315 317 320 319 318 319 321 324 324 324 329 327 333 335 351 354 353 353 350 349 349
304 303 305 306 306 308 308 304 310 310 311 311 310 309 313 311 311 313 311 309 309 310 310 310 314 317 319 319 318 317 317 320 326 326 328 337 342 350 346 352 352 350 350 348 349
303 306 306 309 309 309 301 305 307 310 310 310 309 310 311 311 310 311 311 311 310 308 310 311 314 320 319 319 318 320 319 319 322 322 327 346 345 342 344 355 353 351 350 349 348
306 306 307 311 311 308 302 307 307 309 309 309 309 309 308 308 308 308 311 315 316 315 311 310 312 315 320 320 319 318 319 321 318 325 326 339 349 347 348 350 355 353 349 348 348
307 306 311 310 311 301 304 304 308 308 309 308 307 307 306 307 307 307 311 314 315 314 316 312 310 313 316 317 319 318 318 319 318 320 325 336 346 338 344 347 347 347 343 343 349
304 307 311 310 306 302 304 307 309 309 309 309 309 308 308 307 307 308 311 311 312 315 315 317 313 311 314 315 318 318 318 315 320 320 323 325 329 337 338 340 341 341 340 339 341
302 305 312 310 306 304 305 308 310 311 311 309 309 308 308 309 309 308 309 311 315 319 324 320 313 318 320 317 317 317 317 317 316 317 321 327 329 335 339 341 340 339 341 342 340
302 309 305 303 303 308 307 308 309 310 310 309 308 307 307 307 307 308 314 314 314 318 325 314 312 317 316 318 321 324 324 324 318 320 322 324 327 342 339 339 339 341 344 343 346
304 309 307 307 307 306 307 308 308 308 307 309 309 310 310 308 312 312 312 312 312 315 312 314 317 319 320 322 324 323 324 325 323 319 322 323 325 332 338 344 351 350 349 344 343
304 306 304 305 305 306 307 308 309 308 309 312 312 312 309 310 311 311 309 309 312 309 310 311 316 316 321 325 325 326 325 326 326 324 322 322 331 339 337 344 350 354 352 351 347
307 308 304 307 307 308 309 311 312 310 310 309 310 311 310 309 309 308 307 306 306 309 309 312 312 314 320 323 326 325 326 326 326 327 322 321 327 341 341 344 350 350 353 351 349
Wind_Speed
25 25 26 26 25 25 24 24 24 23 23 23 24 23 23 25 25 12 5 5 1 11 12 20 18 15 18 6 5 3 3 4 7 18 7 18 9 10 8 16 6 8 6 22 25
26 27 27 27 26 26 24 25 24 24 24 24 23 22 21 24 21 10 13 10 9 8 10 14 12 17 6 9 6 5 4 5 7 6 19 20 15 14 7 14 6 10 17 25 22
26 27 28 28 27 27 25 25 24 24 24 23 23 20 19 17 5 6 3 7 9 8 6 8 8 7 8 8 8 8 6 4 1 12 17 18 15 13 12 11 10 23 24 21 19
28 28 29 29 29 29 27 26 23 22 23 24 22 19 15 4 3 0 5 3 7 8 3 7 2 4 4 5 4 5 10 3 3 14 15 17 15 12 13 4 12 26 30 22 16
29 30 31 32 30 29 28 26 23 21 21 23 20 17 5 1 10 15 11 7 8 7 5 4 3 1 6 6 10 3 5 4 5 16 7 17 13 7 9 15 16 21 20 19 14
31 32 33 34 33 31 30 27 23 21 21 20 17 13 2 4 6 12 12 9 8 10 5 5 3 6 4 6 3 2 3 4 4 18 18 14 8 7 12 20 20 21 17 15 17
31 33 35 35 33 33 31 26 24 24 23 15 12 5 3 15 2 5 2 7 9 10 4 12 6 6 4 9 6 1 3 4 7 2 7 16 5 9 21 20 20 20 15 14 14
32 34 36 35 35 35 30 28 33 23 14 9 5 2 7 14 13 19 20 22 22 20 21 17 14 2 2 2 8 4 4 3 5 8 1 2 5 11 20 21 18 20 15 16 15
31 34 36 36 34 34 29 34 19 8 4 2 1 3 9 10 5 22 25 16 15 17 24 14 5 2 6 3 6 6 2 2 2 2 2 8 2 4 17 18 19 20 16 15 15
32 33 35 35 33 33 30 21 12 11 5 3 1 2 6 4 3 26 22 24 8 5 6 1 4 1 3 5 3 3 0 1 7 6 5 2 6 4 18 18 19 19 19 17 16
32 34 34 34 33 24 26 7 6 6 6 5 5 5 16 11 24 8 11 10 5 3 6 6 2 6 10 8 7 5 5 5 5 9 6 6 5 7 12 16 18 19 19 18 17
31 32 34 34 32 14 17 5 2 7 10 10 17 13 29 7 7 15 7 8 7 10 4 1 8 12 8 6 9 5 5 6 6 6 5 5 4 7 13 17 19 18 17 18 14
30 33 35 34 19 11 11 15 19 20 3 8 7 8 10 13 10 18 3 2 6 9 8 11 12 12 10 11 9 6 9 6 7 3 4 3 6 6 6 6 17 18 19 19 19
30 31 32 35 3 22 5 20 19 21 4 8 5 8 4 8 5 16 10 5 3 11 7 9 13 12 13 13 9 10 12 10 8 10 5 5 4 2 7 14 19 18 20 20 21
29 31 31 25 17 9 12 24 25 3 2 3 4 3 2 10 5 5 17 4 7 5 7 9 9 12 17 17 12 12 11 12 12 9 3 4 1 7 14 16 16 21 20 21 22
29 30 32 17 14 14 18 25 5 5 5 5 4 6 7 5 4 2 3 4 2 8 7 7 5 8 16 12 16 17 8 3 7 5 7 14 10 12 9 23 21 20 20 23 23
29 31 30 16 5 13 17 6 5 3 6 6 6 8 6 3 6 6 5 4 8 5 6 4 9 11 9 6 8 8 4 8 3 1 11 8 2 13 20 20 24 27 25 23 25
31 32 20 17 14 12 10 5 3 4 5 6 9 9 3 13 8 7 7 7 5 4 3 8 11 10 7 15 9 9 11 6 6 4 11 2 6 6 5 15 23 27 26 23 25
33 20 12 4 6 5 5 4 6 2 3 8 10 6 6 7 6 14 5 4 9 13 14 6 8 4 13 8 9 11 6 11 7 5 2 3 3 5 7 8 17 19 15 22 22
22 13 10 9 5 4 5 4 4 3 8 4 1 3 6 10 7 13 5 9 9 7 5 10 8 7 19 5 11 9 6 1 1 6 5 5 3 5 7 11 15 16 16 17 20
8 4 3 13 11 5 3 6 5 8 6 3 2 4 4 5 5 7 7 7 20 16 6 4 8 12 5 7 9 2 6 2 4 6 8 4 6 8 18 20 22 21 17 17 24
6 2 3 7 3 0 2 4 4 7 6 2 3 4 3 5 3 2 4 5 16 14 8 2 2 9 19 5 5 6 6 7 8 9 3 5 8 5 12 17 19 19 18 15 19
3 3 7 5 1 2 5 6 5 4 3 5 3 4 5 4 5 2 6 9 11 11 8 7 4 3 2 5 1 6 6 6 2 2 13 5 6 4 4 7 9 12 7 8 16
2 3 4 4 1 1 5 5 5 5 3 3 3 5 6 5 2 5 10 7 12 12 18 6 1 3 6 2 2 6 9 4 7 6 7 7 6 5 7 9 9 7 9 10 18
1 3 0 3 4 5 2 4 5 4 4 5 3 5 5 4 4 6 4 7 11 12 11 4 0 6 9 8 6 9 10 6 2 10 9 11 10 9 12 3 3 6 5 11 14
1 2 4 3 5 6 3 4 4 5 3 1 3 4 8 5 1 2 5 4 3 10 8 7 4 6 5 5 6 6 8 6 6 4 6 6 5 7 9 7 6 5 12 9 9
3 5 3 4 3 4 3 5 5 3 4 2 5 3 5 4 1 4 3 4 6 3 5 4 4 6 6 9 6 2 2 4 5 5 8 8 9 8 6 9 10 10 9 13 11
Wind_Direction
8 4 1 358 356 351 346 342 339 337 337 335 336 338 337 331 327 324 245 236 188 176 168 158 178 177 176 196 165 162 101 266 150 157 163 246 222 170 114 135 179 176 143 154 154
5 1 359 356 352 349 344 340 336 334 334 333 334 336 336 334 328 286 278 241 245 195 178 184 175 176 211 194 196 155 163 249 131 145 173 200 200 159 148 164 75 106 121 142 146
2 0 357 353 349 346 342 338 332 330 331 331 331 334 335 333 330 258 304 186 210 233 207 263 258 198 215 168 195 202 214 202 260 175 163 189 176 172 165 187 176 148 151 159 158
0 358 355 351 347 343 339 335 329 326 326 329 328 332 332 339 255 336 35 193 212 229 217 279 294 4 293 303 179 170 237 239 185 164 173 155 157 168 182 194 156 155 156 160 165
357 355 352 350 346 342 336 330 325 322 322 325 326 333 347 57 249 252 298 238 201 194 209 245 307 168 297 316 4 49 187 187 310 175 151 145 158 150 144 120 132 144 153 160 166
353 353 351 348 345 340 333 327 321 318 318 318 320 332 331 246 263 278 261 224 199 193 220 220 256 310 310 325 60 301 332 92 8 144 152 134 137 113 139 133 142 152 159 165 167
350 350 348 346 343 338 331 325 321 316 309 302 307 330 282 236 250 114 258 245 258 220 231 260 261 12 310 331 345 1 175 197 84 219 113 117 143 158 151 145 153 159 165 165 178
347 347 344 343 341 337 329 326 320 301 297 286 282 151 245 265 278 268 256 267 262 260 247 267 283 232 248 320 4 324 66 72 307 16 153 15 189 155 157 150 160 165 176 173 181
345 344 342 341 340 338 331 331 325 302 264 226 166 153 267 293 242 241 243 242 259 271 246 271 291 194 1 43 7 347 89 142 3 291 35 48 311 164 169 162 167 174 177 180 183
344 343 341 339 339 340 337 340 33 67 79 74 245 359 269 271 291 318 279 238 231 271 333 -0 49 118 9 79 223 237 320 215 220 186 258 151 227 206 179 178 177 177 179 179 190
341 342 340 338 338 343 350 9 14 348 27 241 211 257 288 285 309 289 323 180 194 141 197 247 138 224 231 200 217 214 229 241 202 219 194 194 191 214 169 189 183 184 181 184 187
340 340 340 337 338 348 2 44 4 299 303 256 248 247 256 277 300 287 326 159 153 215 164 335 209 226 221 226 232 169 180 236 311 280 192 49 290 223 189 192 189 186 185 183 182
340 341 340 336 341 2 353 3 356 348 296 291 230 217 230 158 220 258 142 236 168 204 195 212 226 227 232 253 248 207 184 190 220 344 239 129 289 172 213 152 182 191 186 183 184
338 338 340 341 16 340 307 350 349 341 25 283 250 262 173 138 235 241 197 175 168 194 189 215 230 221 231 238 215 260 204 208 196 125 260 145 273 223 182 190 182 189 183 186 182
333 333 337 347 304 314 319 336 335 10 14 250 280 120 133 149 167 259 212 147 226 220 142 230 180 203 226 233 222 245 247 208 197 204 65 217 73 276 162 205 199 187 184 188 181
328 327 333 334 298 285 327 327 349 53 258 320 33 343 30 297 253 296 161 120 183 228 247 226 272 213 230 230 234 245 272 276 245 204 242 222 229 265 186 208 200 184 189 190 188
325 323 320 295 245 315 322 1 57 148 321 4 348 338 330 288 275 187 191 204 197 169 240 319 248 251 232 229 263 247 110 260 298 305 239 229 151 246 217 211 192 186 194 190 189
325 324 316 278 274 304 349 54 153 254 306 10 336 326 302 20 328 288 163 211 242 156 151 210 264 210 215 203 202 230 168 185 204 207 264 239 217 251 245 209 186 190 194 189 192
328 331 312 226 237 257 68 72 207 316 356 339 337 352 331 34 7 4 348 237 203 185 210 193 247 267 221 216 168 242 174 201 198 219 76 220 306 329 355 182 186 193 193 198 193
327 328 294 153 199 153 73 244 270 325 329 337 302 336 3 350 33 2 318 38 22 22 287 218 247 223 238 196 243 199 199 189 354 223 225 260 220 211 203 200 190 182 209 208 198
330 -0 187 161 173 59 154 233 283 272 296 326 36 3 356 24 17 342 308 320 16 350 6 317 187 250 183 191 214 223 233 144 152 161 208 186 258 212 200 199 189 194 206 190 191
354 1 221 171 51 149 182 220 249 292 354 300 77 31 359 343 307 331 312 313 349 358 348 321 202 217 236 200 202 173 227 183 218 255 225 187 245 250 207 204 211 193 186 197 201
345 262 288 217 147 284 279 278 238 338 358 350 315 66 53 12 347 317 315 339 8 21 348 335 341 359 358 330 165 211 216 194 145 125 231 195 264 284 139 169 197 189 243 213 185
22 349 321 26 75 31 348 292 344 300 247 71 322 43 25 353 53 317 358 341 337 19 1 43 338 142 211 229 289 289 324 294 209 191 202 199 205 220 233 202 204 192 242 180 175
52 274 298 335 331 329 324 291 322 343 352 23 23 92 69 337 30 357 335 329 326 6 346 78 212 322 284 251 259 262 269 300 277 236 185 221 184 213 215 106 169 222 92 162 168
60 28 349 286 314 344 331 308 301 331 39 337 96 41 53 102 105 322 10 28 294 330 347 354 345 334 290 310 237 256 281 296 288 283 235 198 219 197 146 152 151 113 102 74 68
335 350 94 286 331 318 295 340 317 350 300 44 145 95 75 58 347 266 261 252 230 272 315 9 20 351 291 322 306 353 270 299 294 3 271 213 206 157 164 177 158 146 148 156 154